GW5080 Weather Reports


Display with metric or nautical units.
time (UTC)temp
F
wind
direction
speed
MPH
gust
MPH
rain 1hr
in
rain 24hr
in
rain mn
in
humidity
%
barometer
mb
20260508035004 53 337 1.0 3.0 0.00 1.13 1.13 95 1013.8
20260508034004 53 254 1.0 2.0 0.00 1.13 1.13 95 1013.4
20260508033505 53 255 1.0 3.0 0.00 1.13 1.13 95 1013.4
20260508033004 53 308 2.0 5.0 0.00 1.13 1.13 95 1013.4
20260508032504 53 32 3.0 5.0 0.00 1.13 1.13 95 1013.6
20260508032005 53 355 0.0 1.0 0.00 1.13 1.13 94 1013.6
20260508031504 53 355 1.0 2.0 0.00 1.13 1.13 95 1013.5
20260508031004 53 355 1.0 1.0 0.00 1.13 1.13 94 1013.2
20260508030004 53 355 0.0 1.0 0.00 1.13 1.13 94 1013.2
20260508025506 53 355 0.0 1.0 0.00 1.13 1.13 94 1013.1
20260508025004 53 355 1.0 1.0 0.00 1.13 1.13 94 1013.1
20260508024505 53 355 1.0 3.0 0.00 1.13 1.13 94 1013.1
20260508024005 53 0 2.0 3.0 0.00 1.13 1.13 94 1013.1
20260508023504 53 47 1.0 2.0 0.00 1.13 1.13 94 1013.1
20260508023004 54 73 0.0 1.0 0.00 1.13 1.13 94 1013.1
20260508022504 54 70 1.0 2.0 0.00 1.13 1.13 94 1013.1
20260508021504 54 3 2.0 3.0 0.00 1.13 1.13 94 1013.1
20260508021004 54 3 2.0 3.0 0.00 1.13 1.13 94 1012.9
20260508020004 54 333 1.0 2.0 0.00 1.13 1.13 94 1012.9
20260508015504 54 288 0.0 1.0 0.01 1.13 1.13 94 1012.5
20260508015005 54 288 1.0 2.0 0.05 1.13 1.13 94 1012.5
20260508014504 54 349 0.0 2.0 0.07 1.13 1.13 94 1012.5
20260508014004 54 347 1.0 2.0 0.10 1.13 1.13 94 1012.4
20260508013504 54 322 1.0 1.0 0.11 1.13 1.13 94 1012.4
20260508012504 54 10 0.0 3.0 0.11 1.13 1.13 93 1012.0
20260508010504 54 7 0.0 2.0 0.11 1.13 1.13 92 1012.2
20260508010005 54 354 2.0 3.0 0.11 1.13 1.13 92 1012.3
20260508005504 54 33 2.0 3.0 0.10 1.12 1.12 92 1012.6
20260508005004 54 228 3.0 6.0 0.06 1.08 1.08 92 1012.6
20260508004503 54 335 2.0 6.0 0.04 1.06 1.06 91 1012.5
20260508004005 54 315 3.0 5.0 0.01 1.03 1.03 91 1011.8
20260508003504 54 309 1.0 3.0 0.00 1.02 1.02 91 1011.8
20260508003005 54 323 2.0 5.0 0.00 1.02 1.02 91 1011.6
20260508002504 54 53 1.0 2.0 0.00 1.02 1.02 91 1011.0
20260508002004 54 91 1.0 3.0 0.00 1.02 1.02 91 1011.0
20260508001004 54 99 2.0 5.0 0.00 1.02 1.02 91 1011.0
20260508000505 54 32 3.0 8.0 0.00 1.02 1.02 91 1011.0
20260508000004 54 72 3.0 8.0 0.00 1.02 1.02 91 1011.0
20260507235504 54 64 3.0 5.0 0.00 1.02 1.02 91 1011.1
20260507235004 54 87 3.0 7.0 0.00 1.02 1.02 91 1011.1
20260507234503 54 23 3.0 6.0 0.00 1.02 1.02 91 1011.1
20260507234004 54 28 3.0 7.0 0.00 1.02 1.02 91 1011.2
20260507233504 55 67 5.0 12.0 0.00 1.02 1.02 91 1011.2
20260507232504 55 45 2.0 10.0 0.00 1.02 1.02 91 1011.0
20260507232004 55 30 4.0 7.0 0.00 1.02 1.02 91 1011.0
20260507231505 55 46 4.0 7.0 0.00 1.02 1.02 91 1010.9
20260507231005 55 21 2.0 8.0 0.00 1.02 1.02 91 1010.7
20260507230504 55 343 3.0 10.0 0.00 1.02 1.02 91 1010.7
20260507230005 55 27 5.0 8.0 0.00 1.02 1.02 92 1010.7
20260507225004 55 13 7.0 15.0 0.00 1.02 1.02 92 1010.6
20260507224505 55 9 5.0 13.0 0.00 1.02 1.02 92 1010.6
20260507224004 55 26 5.0 12.0 0.00 1.02 1.02 93 1010.5
20260507223504 54 0 3.0 6.0 0.00 1.02 1.02 93 1010.5
20260507223004 54 32 5.0 12.0 0.00 1.02 1.02 93 1010.5
20260507222504 54 33 5.0 9.0 0.00 1.02 1.02 93 1010.8
20260507222004 54 43 6.0 13.0 0.00 1.02 1.02 93 1010.8
20260507221504 54 35 5.0 12.0 0.00 1.02 1.02 93 1010.7
20260507221005 54 6 6.0 13.0 0.00 1.02 1.02 93 1010.5
20260507220504 54 358 6.0 12.0 0.00 1.02 1.02 93 1010.5
20260507220004 54 12 9.0 16.0 0.00 1.02 1.02 93 1010.5
20260507215504 54 11 8.0 13.0 0.00 1.02 1.02 93 1010.4
20260507215004 54 46 9.0 18.0 0.01 1.02 1.02 93 1010.4
20260507214504 54 25 7.0 16.0 0.02 1.02 1.02 93 1010.4
20260507214004 55 23 6.0 12.0 0.03 1.02 1.02 93 1010.4
20260507213504 55 10 11.0 23.0 0.05 1.02 1.02 93 1010.4
20260507213004 55 2 8.0 23.0 0.06 1.02 1.02 94 1010.3
20260507212004 55 10 10.0 20.0 0.13 1.02 1.02 94 1010.0
20260507211503 56 349 7.0 16.0 0.14 1.02 1.02 94 1009.9
20260507211004 56 348 10.0 18.0 0.16 1.02 1.02 94 1009.6
20260507210503 56 2 7.0 18.0 0.19 1.02 1.02 94 1009.6
20260507210005 57 20 12.0 18.0 0.20 1.02 1.02 94 1009.6
20260507205504 57 25 9.0 16.0 0.20 1.02 1.02 94 1009.9
20260507204505 57 353 9.0 16.0 0.18 1.00 1.00 94 1009.8
20260507204004 57 9 9.0 16.0 0.17 0.99 0.99 94 1009.4
20260507202504 58 350 5.0 12.0 0.11 0.93 0.93 93 1009.2
20260507202005 59 22 5.0 8.0 0.07 0.89 0.89 93 1009.2
20260507201504 59 29 6.0 13.0 0.06 0.88 0.88 93 1009.2
20260507201004 60 23 7.0 13.0 0.04 0.86 0.86 93 1009.3
20260507200505 60 342 5.0 10.0 0.01 0.83 0.83 93 1009.3
20260507200004 60 21 4.0 15.0 0.00 0.82 0.82 92 1009.2
20260507195504 60 19 6.0 12.0 0.00 0.82 0.82 92 1009.1
20260507195004 60 6 4.0 12.0 0.00 0.82 0.82 92 1009.1
20260507194504 60 30 8.0 12.0 0.00 0.82 0.82 92 1009.1
20260507194004 61 22 5.0 17.0 0.00 0.82 0.82 92 1009.3
20260507193505 61 358 6.0 18.0 0.00 0.82 0.82 92 1009.3
20260507193004 61 350 6.0 15.0 0.00 0.82 0.82 92 1009.2
20260507192504 61 22 9.0 16.0 0.00 0.82 0.82 92 1008.7
20260507191504 62 18 9.0 18.0 0.00 0.82 0.82 92 1008.7
20260507191004 62 22 6.0 13.0 0.00 0.82 0.82 92 1008.4
20260507190505 62 10 3.0 9.0 0.00 0.82 0.82 92 1008.4
20260507190005 62 16 6.0 13.0 0.00 0.82 0.82 92 1008.5
20260507185504 62 30 6.0 9.0 0.01 0.82 0.82 92 1009.1
20260507185004 63 2 7.0 16.0 0.01 0.82 0.82 91 1009.1
20260507184005 64 331 4.0 15.0 0.01 0.82 0.82 89 1008.3
20260507183505 64 45 7.0 15.0 0.01 0.82 0.82 88 1008.3
20260507183004 66 47 12.0 20.0 0.01 0.82 0.82 85 1008.3
20260507182504 70 354 14.0 21.0 0.01 0.82 0.82 81 1008.2
20260507182005 73 353 3.0 6.0 0.01 0.82 0.82 90 1008.2
20260507181504 72 325 3.0 5.0 0.01 0.82 0.82 91 1008.2
20260507181004 71 240 2.0 7.0 0.01 0.82 0.82 91 1008.3
20260507180504 71 259 2.0 7.0 0.01 0.82 0.82 91 1008.3
20260507180004 71 278 1.0 6.0 0.01 0.82 0.82 91 1008.2
20260507175004 71 265 3.0 9.0 0.00 0.81 0.81 92 1008.1
20260507174005 71 274 3.0 7.0 0.00 0.81 0.81 93 1008.0
20260507173504 70 194 5.0 10.0 0.00 0.81 0.81 93 1008.0
20260507173004 70 201 5.0 8.0 0.00 0.81 0.81 94 1008.0
20260507172505 70 188 3.0 5.0 0.00 0.81 0.81 93 1008.3
20260507172004 70 198 4.0 6.0 0.00 0.81 0.81 93 1008.3
20260507171504 69 214 3.0 6.0 0.00 0.81 0.81 93 1008.4
20260507171004 69 147 2.0 5.0 0.00 0.81 0.81 93 1008.8
20260507170503 69 284 2.0 3.0 0.00 0.81 0.81 93 1008.8
20260507170005 69 181 2.0 6.0 0.00 0.81 0.81 94 1008.9
20260507165505 69 205 2.0 5.0 0.00 0.81 0.81 93 1009.3
20260507165004 69 216 3.0 6.0 0.00 0.81 0.81 93 1009.3
20260507164504 69 208 4.0 6.0 0.01 0.81 0.81 94 1009.3
20260507164004 69 184 1.0 2.0 0.01 0.81 0.81 94 1009.5
20260507163504 69 237 3.0 5.0 0.02 0.81 0.81 93 1009.5
20260507163004 69 221 2.0 5.0 0.02 0.81 0.81 93 1009.6
20260507162504 69 283 3.0 5.0 0.03 0.81 0.81 94 1009.7
20260507162004 69 235 3.0 8.0 0.03 0.81 0.81 94 1009.7
20260507161504 69 231 4.0 7.0 0.04 0.81 0.81 93 1009.7
20260507161005 69 211 2.0 7.0 0.04 0.81 0.81 94 1009.5
20260507160504 69 270 3.0 7.0 0.06 0.81 0.81 94 1009.5
20260507160004 69 214 3.0 7.0 0.08 0.81 0.81 94 1009.4
20260507155504 68 214 4.0 7.0 0.10 0.81 0.81 94 1009.4
20260507155004 68 265 2.0 5.0 0.12 0.81 0.81 94 1009.4
20260507154504 68 221 3.0 6.0 0.12 0.80 0.80 94 1009.4
20260507154005 68 221 2.0 3.0 0.14 0.80 0.80 94 1009.8
20260507153506 68 276 2.0 5.0 0.14 0.79 0.79 94 1009.8
20260507153004 68 253 5.0 12.0 0.15 0.79 0.79 94 1009.8
20260507152504 67 252 7.0 15.0 0.16 0.78 0.78 94 1009.8
20260507151504 68 229 7.0 10.0 0.17 0.77 0.77 94 1009.9
20260507151004 68 225 3.0 8.0 0.18 0.77 0.77 94 1010.3
20260507150504 68 211 6.0 8.0 0.16 0.75 0.75 94 1010.3
20260507150005 68 225 6.0 8.0 0.16 0.73 0.73 94 1010.3
20260507145004 68 223 3.0 7.0 0.12 0.69 0.69 94 1010.2
20260507144504 68 212 3.0 6.0 0.11 0.68 0.68 94 1010.2
20260507144005 68 262 6.0 13.0 0.09 0.66 0.66 94 1010.1
20260507142504 68 308 3.0 6.0 0.05 0.62 0.62 94 1010.1
20260507141504 69 258 2.0 5.0 0.03 0.60 0.60 94 1010.2
20260507141004 69 310 3.0 8.0 0.02 0.59 0.59 94 1010.4
20260507140504 69 273 2.0 8.0 0.02 0.59 0.59 94 1010.4
20260507140005 69 220 3.0 8.0 0.00 0.57 0.57 94 1010.4
20260507135504 69 213 3.0 6.0 0.00 0.57 0.57 94 1010.3
20260507135004 69 215 2.0 8.0 0.00 0.57 0.57 94 1010.3
20260507134504 69 294 2.0 3.0 0.00 0.57 0.57 94 1010.3
20260507134004 69 251 1.0 3.0 0.00 0.57 0.57 95 1010.2
20260507133504 68 316 1.0 5.0 0.00 0.57 0.57 95 1010.2
20260507133005 68 256 2.0 6.0 0.00 0.57 0.57 95 1010.2
20260507132004 68 288 1.0 3.0 0.00 0.57 0.57 95 1010.2
20260507131504 68 272 3.0 6.0 0.00 0.57 0.57 95 1010.2
20260507131004 68 230 3.0 6.0 0.00 0.57 0.57 95 1010.1
20260507130504 68 218 4.0 7.0 0.00 0.57 0.57 95 1010.1
20260507130005 68 223 5.0 10.0 0.00 0.57 0.57 95 1010.1
20260507125504 68 231 5.0 12.0 0.00 0.57 0.57 95 1010.3
20260507124504 68 228 5.0 13.0 0.00 0.57 0.57 96 1010.3
20260507124004 68 229 5.0 13.0 0.00 0.57 0.57 96 1010.5
20260507123504 67 205 6.0 10.0 0.00 0.57 0.57 95 1010.5
20260507123003 67 219 4.0 8.0 0.00 0.57 0.57 95 1010.5
20260507122504 67 212 5.0 8.0 0.00 0.57 0.57 96 1010.7
20260507122004 67 242 3.0 6.0 0.00 0.57 0.57 96 1010.7
20260507121004 67 209 4.0 8.0 0.00 0.57 0.57 96 1010.9
20260507120504 67 203 3.0 6.0 0.00 0.57 0.57 96 1010.9
20260507115505 67 205 3.0 6.0 0.00 0.57 0.57 96 1010.9
20260507115004 67 223 3.0 6.0 0.01 0.57 0.57 95 1010.9
20260507114504 67 240 3.0 6.0 0.01 0.57 0.57 95 1010.9
20260507114005 67 232 3.0 6.0 0.02 0.57 0.57 95 1011.1
20260507113504 67 201 2.0 5.0 0.02 0.57 0.57 95 1011.1
20260507113004 67 203 3.0 5.0 0.02 0.57 0.57 95 1011.1
20260507112504 67 210 2.0 6.0 0.02 0.57 0.57 95 1011.1
20260507112004 67 209 3.0 6.0 0.02 0.57 0.57 95 1011.1
20260507111504 67 226 2.0 5.0 0.03 0.57 0.57 95 1011.1
20260507111004 67 214 4.0 8.0 0.03 0.57 0.57 95 1010.9
20260507110504 67 239 4.0 7.0 0.03 0.57 0.57 95 1010.9
20260507110004 66 210 3.0 8.0 0.03 0.57 0.57 95 1010.9
20260507105504 66 225 3.0 10.0 0.03 0.57 0.57 95 1010.8
20260507105004 67 198 5.0 7.0 0.02 0.56 0.56 95 1010.8
20260507104504 66 216 3.0 7.0 0.03 0.56 0.56 95 1010.8
20260507104004 66 191 5.0 10.0 0.02 0.55 0.55 95 1010.8
20260507103505 66 194 3.0 7.0 0.02 0.55 0.55 95 1010.8
20260507103004 66 225 2.0 6.0 0.02 0.55 0.55 95 1010.8
20260507102504 66 258 3.0 6.0 0.02 0.55 0.55 95 1010.7
20260507102006 66 239 3.0 6.0 0.02 0.55 0.55 95 1010.7
20260507101504 66 236 1.0 2.0 0.01 0.54 0.54 95 1010.7
20260507101004 66 209 3.0 6.0 0.01 0.54 0.54 95 1010.5
20260507100505 66 209 4.0 6.0 0.02 0.54 0.54 95 1010.5
20260507100004 67 213 2.0 6.0 0.03 0.54 0.54 95 1010.5
20260507095504 67 225 4.0 8.0 0.05 0.54 0.54 95 1010.3
20260507095004 67 216 3.0 10.0 0.08 0.54 0.54 95 1010.3
20260507094504 67 216 5.0 9.0 0.08 0.53 0.53 95 1010.4
20260507094005 67 208 5.0 7.0 0.11 0.53 0.53 95 1010.5
20260507093004 66 208 3.0 6.0 0.13 0.53 0.53 95 1010.5
20260507092004 66 220 3.0 7.0 0.14 0.53 0.53 95 1010.6
20260507091503 66 195 7.0 13.0 0.15 0.53 0.53 95 1010.6
20260507091004 66 239 5.0 13.0 0.15 0.53 0.53 95 1010.7
20260507090504 66 198 7.0 15.0 0.15 0.52 0.52 95 1010.7
20260507085004 66 196 5.0 9.0 0.11 0.46 0.46 95 1011.2
20260507084004 66 223 5.0 8.0 0.08 0.42 0.42 95 1011.3
20260507083504 66 216 3.0 6.0 0.07 0.41 0.41 95 1011.3
20260507082504 66 200 3.0 5.0 0.06 0.40 0.40 95 1010.4
20260507081504 66 178 5.0 8.0 0.04 0.38 0.38 95 1010.6
20260507081004 66 153 4.0 6.0 0.04 0.38 0.38 95 1011.4
20260507080504 66 180 2.0 2.0 0.03 0.37 0.37 94 1011.4
20260507080005 66 198 1.0 2.0 0.02 0.36 0.36 95 1011.4
20260507075504 66 198 0.0 2.0 0.02 0.36 0.36 95 1011.6
20260507075004 66 218 1.0 3.0 0.01 0.35 0.35 95 1011.6
20260507074504 66 216 2.0 3.0 0.01 0.35 0.35 95 1011.6
20260507074004 66 212 1.0 3.0 0.00 0.34 0.34 94 1011.8
20260507073504 66 129 2.0 5.0 0.00 0.34 0.34 94 1011.8
20260507072504 66 193 3.0 6.0 0.00 0.34 0.34 94 1011.7
20260507072004 66 184 2.0 5.0 0.00 0.34 0.34 94 1011.7
20260507071504 66 190 2.0 3.0 0.00 0.34 0.34 94 1011.6
20260507071004 66 201 2.0 3.0 0.00 0.34 0.34 94 1011.6
20260507070504 66 157 1.0 2.0 0.00 0.34 0.34 94 1011.6
20260507070009 66 167 1.0 2.0 0.00 0.34 0.34 94 1011.7
20260507065004 66 169 1.0 2.0 0.00 0.34 0.34 94 1011.9
20260507064504 67 151 2.0 2.0 0.00 0.34 0.34 94 1011.9
20260507063504 67 221 0.0 1.0 0.01 0.34 0.34 94 1012.3
20260507063004 67 221 0.0 1.0 0.04 0.34 0.34 94 1012.3
20260507062504 67 221 0.0 2.0 0.06 0.34 0.34 93 1012.4
20260507062006 67 232 1.0 2.0 0.09 0.34 0.34 93 1012.4
20260507061505 67 158 2.0 5.0 0.15 0.34 0.34 93 1012.3
20260507061004 67 179 2.0 3.0 0.17 0.34 0.34 93 1012.0
20260507060504 67 172 2.0 3.0 0.23 0.34 0.34 93 1012.0
20260507060004 67 166 1.0 2.0 0.29 0.34 0.34 93 1012.0
20260507055504 67 175 2.0 3.0 0.32 0.34 0.34 93 1012.1
20260507055004 67 173 3.0 6.0 0.34 0.34 0.34 92 1012.1
20260507054504 67 211 3.0 5.0 0.34 0.34 0.34 92 1012.0
20260507054005 67 189 2.0 3.0 0.34 0.34 0.34 92 1011.8
20260507053504 67 159 3.0 7.0 0.33 0.33 0.33 91 1011.8
20260507053005 68 116 6.0 10.0 0.30 0.30 0.30 91 1012.1
20260507052004 68 281 1.0 5.0 0.25 0.25 0.25 89 1013.9
20260507051005 69 178 2.0 3.0 0.17 0.17 0.17 87 1013.9
20260507050504 69 308 2.0 8.0 0.11 0.11 0.11 86 1013.9
20260507050005 70 297 4.0 7.0 0.05 0.05 0.05 84 1013.8
20260507045504 70 321 2.0 8.0 0.02 0.02 0.02 82 1013.4
20260507045004 70 309 2.0 3.0 0.00 0.00 0.00 81 1013.4
20260507044504 70 218 2.0 3.0 0.00 0.00 0.00 81 1013.4
20260507044004 71 209 1.0 2.0 0.00 0.00 0.00 79 1013.2
20260507043004 71 248 1.0 2.0 0.00 0.00 0.00 78 1013.2
20260507042504 71 354 2.0 3.0 0.00 0.00 0.00 76 1013.3
20260507042004 72 273 0.0 1.0 0.00 0.00 0.00 75 1013.3
20260507041504 72 232 2.0 3.0 0.00 0.00 0.00 74 1013.2
20260507041004 72 238 2.0 5.0 0.00 0.00 0.00 73 1012.5
20260507040505 73 232 5.0 7.0 0.00 0.00 0.00 72 1012.5